Regional Weather Roundup
Issued by NWS San Diego, CA

Home | Current Version | Previous Version | Text Only | Print | Product List | Glossary On
Versions: 1 2 3 4 5 6 7 8 9 10 11 12 13 14 15 16 17 18 19 20 21 22 23 24 25 26 27 28 29 30 31 32 33 34 35 36 37 38 39 40 41 42 43 44 45 46 47 48 49 50
000
ASUS46 KSGX 232110
RWRSGX

SAN DIEGO HOURLY WEATHER ROUNDUP
NATIONAL WEATHER SERVICE SAN DIEGO CA
200 PM PDT WED JUL 23 2014

NOTE: "FAIR" INDICATES FEW OR NO CLOUDS BELOW 12,000 FEET WITH NO
SIGNIFICANT WEATHER AND/OR OBSTRUCTIONS TO VISIBILITY.

CAZ042-043-060-061-PZZ750-775-232200-

GREATER SAN DIEGO AREA

CITY           SKY/WX    TMP DP  RH WIND       PRES   REMARKS
LINDBERGH FLD  MOSUNNY   79  60  52 NW13      29.96F
POINT LOMA       N/A     77  65  67 NW16        N/A
NATIONAL CITY    N/A     81  64  55 W8        29.95F
CHULA VISTA      N/A     83  67  57 W12       29.89F
IMPERIAL BEACH MOSUNNY   78  66  66 W15       29.96F
BROWN FIELD    SUNNY     84  58  40 W12G18    29.96F
MIRAMAR MCAS   MOSUNNY   84  55  36 NW12      29.96F
MONTGOMERY FLD SUNNY     84  54  35 W10       29.96F

$$

NORTH SAN DIEGO COUNTY

CITY           SKY/WX    TMP DP  RH WIND       PRES   REMARKS
CAMP PENDLETON MOSUNNY   81  61  50 SW12      29.94F
OCEANSIDE AP   SUNNY     77  64  64 W9G20     29.95F
OCEANSIDE HBR    N/A     71  68  91 W5        29.99F
VISTA            N/A     81  65  57 SW3       29.94F
CARLSBAD       SUNNY     75  63  66 W9        29.96F
DEL MAR          N/A     77  68  73 CALM      29.99F
LA JOLLA SCRIP   N/A     72  67  84 W6        29.94F
FALLBROOK        N/A     87  62  42 S5        29.94F
ESCONDIDO        N/A     90  61  37 W7        29.96F
SAN MARCOS       N/A     83  63  50 W5        29.94F
POWAY            N/A     91  60  34 N6        29.95F
R. PENASQUITOS   N/A     84  62  46 S6        29.96F

$$

EAST SAN DIEGO COUNTY

CITY           SKY/WX    TMP DP  RH WIND       PRES   REMARKS
RAMONA         SUNNY     93  52  24 NW10G21   29.98F
GILLESPIE FLD  FAIR      93  52  24 W12       29.96F
LA MESA          N/A     87  60  39 W12       29.88F
JAMUL            N/A     91  58  32 W2        29.93F
DESCANSO N       N/A     92  50  23 W1        29.84F
MT. LAGUNA OBS   N/A     86  34  16 SW14      29.83S
CAMPO            N/A     98  40  13 NW15G22   29.99F

$$

ORANGE COUNTY AND THE LOS ANGELES BASIN

CITY           SKY/WX    TMP DP  RH WIND       PRES   REMARKS
JOHN WAYNE AP  MOSUNNY   85  56  37 SW8       29.95F
LAGUNA BEACH     N/A     77  66  67 S2        29.92F
LAKE FOREST FR   N/A     91  55  29 W2        29.84F
SANTA ANA        N/A     89  66  46 SW3       29.89F
HUNTINGTON BCH   N/A     77  65  65 W10       29.97F
LOS ALAMITOS   SUNNY     87  62  41 SW9       29.94F
FULLERTON      SUNNY     91  60  35 VRB7      29.92F
LONG BEACH     SUNNY     86  55  34 NW12      29.94F
L.A. AP        MOSUNNY   78  57  48 W18       29.96F
L.A. DOWNTOWN  SUNNY     87  55  33 VRB5      29.94F

$$

THE INLAND EMPIRE

CITY           SKY/WX    TMP DP  RH WIND       PRES   REMARKS
CORONA         SUNNY     96  59  29 MISG      29.93F HX  95
CHINO          SUNNY     96  53  23 W13       29.94F
ONTARIO        MOSUNNY   98  50  19 W10       29.95F HX  95
SAN BERNARDINO SUNNY     99  39  12 SW9       29.96
RIVERSIDE AP   SUNNY     98  47  17 W9        29.94F
RIV CYN CREST    N/A     94  60  32 SW6       29.93F
MORENO VALLEY    N/A     99  46  16 NW6       28.07F HX  95
MARCH ARB      MOSUNNY   97  47  17 NW13      29.98F
HORSETHIEF CYN   N/A     97  45  16 NW13      29.94F
PERRIS           N/A     97  42  15 W7          N/A
MENIFEE          N/A    103  46  14 NW7       30.01F HX  99
HEMET EAST       N/A    101  39  12 CALM      29.92F HX  96
FRENCH VALLEY  FAIR      97  54  23 S12       29.96F
TEMECULA         N/A     98  55  23 SW7       29.93F HX  96

$$

SAN BERNARDINO AND RIVERSIDE COUNTY MOUNTAINS

CITY           SKY/WX    TMP DP  RH WIND       PRES   REMARKS
BIG BEAR AP    SUNNY     82  27  13 E5G23     30.36S
BIG BEAR SHEA    N/A     82  22  11 E6        30.00
ANGELUS OAKS     N/A     87  40  18 SW2       29.85F
PINE COVE        N/A     82  35  18 N3        29.94F

$$

SOUTHERN DESERT INCLUDING THE COACHELLA VALLEY

CITY           SKY/WX    TMP DP  RH WIND       PRES   REMARKS
PALM SPRINGS   SUNNY    114  22   4 MISG      29.82F HX 105
PALM DESERT      N/A    116  30   5 CALM      30.18F HX 107
THERMAL        SUNNY    115  29   5 VRB3      29.74F HX 106
BLYTHE         MOSUNNY  113  38   8 E8        29.80F HX 106
IMPERIAL AP    SUNNY    112  33   7 N6        29.77F HX 104
EL CENTRO NAS  MOSUNNY  112  35   7 E9        29.77F HX 105
MEXICALI       SUNNY    111  32   6 W5        29.80  HX 103

$$

UPPER DESERT

CITY           SKY/WX    TMP DP  RH WIND       PRES   REMARKS
VICTORVILLE AP MOSUNNY   99  36  11 SW5       30.04F
HESPERIA         N/A     98  39  12 N2        29.99F
GRAY BUTTE AP  NOT AVBL
PALMDALE       SUNNY    100  22   6 SW16G26   30.02F
LANCASTER      SUNNY    101  33   9 W15       30.00F HX  95
EDWARDS AFB    MOSUNNY  101  27   7 W14       29.97F
DAGGETT        SUNNY    104  32   8 NW15      29.96F HX  97
29 PALMS N     MOSUNNY  104  24   6 VRB6      30.02F HX  96
NEEDLES        MOSUNNY  113  28   5 S10       29.83F HX 105

$$

REGIONAL REPORTS

CITY           SKY/WX    TMP DP  RH WIND       PRES   REMARKS
SANTA BARBARA  SUNNY     81  59  47 SE10      29.94F
SANDBERG       SUNNY     86  35  16 N14G25    30.21F
MT. WILSON       N/A     86  41  20 SW7         N/A
LAS VEGAS NV   MOSUNNY  109  16   3 SW15G22   29.89F HX 100
PHOENIX AZ     PTSUNNY  111  54  15 E9        29.84F HX 109
TIJUANA        SUNNY     82  54  36 NW17      29.98F
ENSENADA NW      N/A     77  32  19 NW6       29.91F

$$

OFFSHORE ISLANDS

CITY           SKY/WX    TMP DP  RH WIND       PRES   REMARKS
CATALINA ARPT  SUNNY     80  57  45 W7        30.02F
SAN NICOLAS IS SUNNY     69  60  73 W31G44    30.00F

$$

MARINE AND OFFSHORE BUOY REPORTS

STATION/POSITION SKY/WX   TEMP    WIND        PRES    SWELL
                          AIR SEA DIR/SP/G            HT/PER/DIR
                          (F)     (DEG/KT/KT) (MB)    (FT/S/D)
TANNER BANKS               66 66  310/ 19/ 21 1016.6F
S CLEMENTE BASIN           69 71  310/ 17/ 19 1014.8F   3/290/ 7
SAN NICOLAS IS.               67                N/A     2/250/12
SO. S. ROSA ISLA           67 67  310/ 19/ 25 1016.2F   2/11
W. S. BARBARA CH           64 61  310/ 21/ 25 1015.9F   2/300/ 9
M. S. BARBARA CH           67 67  280/ 12/ 16 1015.3
S. MONICA BASIN            71 70  270/ 10/ 12 1014.4F   3/270/ 6
S PEDRO CHANNEL               68                N/A
DANA POINT                    70                N/A     2/180/18
CMP PENDLETON NS              67                N/A     2/210/18
OCEANSIDE OFFSHR              71                N/A     2/180/18
TORREY PINES OTR              72                N/A     2/230/11
LA JOLLA 1                 71 68  320/  5/  5 1014.9S
MISSION BAY BUOY              71                N/A     2/260/11
SAN DIEGO BAY                 72              1014.8F
POINT LOMA SOUTH              70                N/A     2/270/11

$$



USA.gov is the U.S. government's official web portal to all federal, state and local government web resources and services.